Theta_e
314 314 315 322 326 328 334 336 336 336 336 336 336 336 338 340 341 339 338 338 338 336 335 335 336 336 336 336 336 336 337 336
310 310 311 311 311 311 315 321 330 332 332 333 333 335 335 336 339 340 339 337 337 337 336 335 336 336 336 336 336 336 337 336
308 308 308 309 309 309 310 310 310 313 316 324 331 332 331 334 334 337 338 339 337 337 337 336 336 336 336 336 336 337 337 335
305 306 306 307 307 307 307 308 308 308 308 309 311 314 323 329 333 335 334 337 339 338 337 337 337 338 337 336 337 337 336 335
304 304 304 305 306 306 307 306 306 307 307 307 307 308 309 314 326 332 334 335 336 340 339 338 339 338 337 335 335 336 336 336
302 303 304 304 305 305 305 306 305 305 305 306 306 306 307 308 311 319 331 334 336 336 339 340 337 337 335 335 334 334 335 336
301 301 302 303 304 304 304 304 304 305 305 305 305 305 305 306 307 308 313 328 335 335 337 337 339 338 335 335 335 334 334 335
300 300 301 302 303 303 304 304 304 304 304 304 304 303 304 304 305 307 309 311 322 332 336 337 336 337 336 335 334 334 334 335
299 300 301 302 302 303 302 303 304 304 303 304 304 302 302 303 304 305 306 307 307 316 331 334 338 337 336 335 335 334 335 335
299 299 300 302 302 303 302 301 302 302 301 301 302 301 301 302 303 304 305 306 308 310 314 326 333 334 335 337 335 335 333 335
297 298 300 300 301 300 299 300 301 301 300 300 301 301 301 302 303 303 304 305 307 309 311 314 321 333 334 333 337 335 334 334
296 297 298 299 297 297 298 299 298 299 299 299 300 300 300 301 302 303 304 303 304 306 309 311 313 320 331 333 332 335 334 333
294 295 295 295 296 296 297 298 298 298 298 298 299 299 299 300 301 302 303 303 303 302 304 308 312 316 327 332 332 331 332 332
294 294 294 294 295 295 295 296 296 297 297 298 298 298 299 299 300 301 302 303 303 303 302 304 309 313 321 329 332 331 330 331
293 293 293 294 294 294 295 296 296 297 297 298 298 298 298 298 299 300 300 302 302 303 303 303 305 309 313 322 330 335 334 331
292 292 293 293 293 294 294 294 295 295 295 296 296 297 297 298 298 298 298 300 302 303 304 304 304 306 310 315 323 327 333 335
292 292 292 292 292 293 293 293 294 294 295 295 296 296 296 297 297 297 297 298 299 301 302 303 304 305 307 310 316 324 328 330
292 292 292 292 292 292 292 292 293 294 294 294 294 294 295 296 296 296 296 296 297 299 300 301 303 305 306 307 312 317 327 331
292 291 291 291 291 291 291 292 293 293 293 293 292 293 294 294 294 295 295 295 296 297 298 300 301 304 306 307 309 313 315 323
291 291 291 291 291 291 291 292 292 293 292 292 291 292 292 293 293 294 294 295 295 295 297 299 301 304 305 307 309 311 314 316
Wind_Speed
22 22 20 18 17 15 13 12 11 11 10 9 7 6 5 5 8 10 10 11 11 11 11 10 10 10 11 11 12 12 12 11
21 19 18 18 18 15 11 8 5 5 6 8 10 10 8 7 7 9 12 13 13 14 13 13 12 12 12 13 14 14 15 13
18 17 16 15 14 12 10 9 9 7 6 4 4 8 10 9 9 10 11 14 16 15 15 15 14 14 14 15 15 15 15 16
18 17 16 15 15 14 13 13 13 11 10 9 8 7 7 7 8 10 13 14 16 18 17 16 16 13 15 17 18 16 16 19
17 17 17 16 16 15 15 14 14 14 14 13 12 10 9 8 9 10 10 14 15 15 18 18 16 16 15 18 20 19 18 18
14 15 16 16 16 16 16 16 17 17 16 16 15 14 13 13 11 11 10 11 13 17 16 18 22 21 24 23 21 23 24 18
12 15 16 17 17 17 16 16 16 17 17 18 17 15 14 14 13 14 15 13 14 18 18 19 19 23 26 27 25 25 24 19
10 12 15 16 17 17 16 16 18 18 17 18 18 15 14 14 16 16 15 15 18 14 20 19 24 22 23 28 28 27 22 21
12 12 14 15 17 18 17 17 18 17 16 17 17 16 16 15 14 15 16 17 21 23 18 22 23 26 28 26 28 28 22 22
13 13 15 17 19 18 16 15 15 16 16 16 19 17 15 15 14 15 16 17 17 19 22 20 23 26 29 26 23 24 25 23
11 14 18 19 17 15 12 14 16 16 15 16 19 18 18 16 16 17 18 17 16 17 19 22 24 24 28 28 24 26 27 27
12 14 16 17 14 12 9 9 14 16 16 16 19 17 18 17 16 16 17 17 17 17 19 21 24 24 24 27 26 24 27 29
14 14 14 12 12 11 9 16 16 16 15 17 17 18 18 18 17 17 16 17 18 19 20 21 24 24 23 22 26 27 26 27
14 15 13 10 10 11 9 15 12 13 15 16 16 18 18 18 19 19 18 20 20 20 19 20 22 20 12 13 5 13 23 28
13 13 12 11 13 13 14 11 13 11 16 15 16 18 18 18 19 19 21 20 22 22 19 18 21 23 23 11 4 9 6 19
10 12 12 13 14 14 15 14 15 15 14 15 18 18 19 18 18 18 22 22 22 22 20 20 20 22 23 26 28 29 6 6
11 11 12 13 14 14 15 14 13 14 15 18 17 18 18 19 17 19 21 22 22 24 25 23 24 25 23 23 29 26 33 12
10 13 15 17 16 15 15 15 16 18 19 19 18 20 18 19 20 21 21 23 23 25 26 27 28 28 28 27 26 17 11 12
13 14 16 15 15 16 16 15 15 17 20 21 23 20 19 22 23 21 24 23 25 27 28 30 31 31 31 29 28 32 34 28
13 14 15 16 16 18 17 16 17 16 20 21 20 20 22 22 23 23 23 23 23 26 26 28 30 33 34 33 33 35 33 36
Wind_Direction
79 74 72 75 70 63 63 53 41 34 28 19 1 341 311 289 282 270 263 267 267 266 267 264 257 249 246 242 237 227 217 226
71 68 65 62 62 61 54 53 55 46 26 14 8 3 333 294 278 279 279 270 267 267 266 266 261 253 247 246 243 235 228 229
62 59 53 48 44 40 36 35 29 15 6 341 322 330 334 329 293 279 271 274 271 265 267 266 262 258 248 245 241 234 232 232
51 47 44 39 34 33 32 27 23 16 4 354 348 330 303 296 307 294 279 269 268 268 262 264 262 254 252 245 238 236 237 238
40 36 34 34 31 28 24 21 19 15 13 5 354 336 321 307 294 296 294 282 272 268 263 255 250 249 247 250 248 240 239 240
34 33 32 29 25 23 17 13 11 12 9 2 357 349 340 324 311 295 295 286 280 270 263 257 257 252 254 253 251 249 247 243
23 24 27 25 21 17 16 15 13 9 6 4 360 352 341 329 313 302 290 277 290 276 264 257 254 250 253 252 252 253 251 245
19 20 24 24 23 19 16 14 9 6 7 5 1 356 345 336 325 316 304 295 273 284 273 261 255 250 249 251 250 249 245 243
17 12 17 21 20 18 16 14 10 9 6 8 7 359 346 339 329 323 316 304 289 272 284 270 251 251 250 251 248 246 239 240
14 10 8 17 16 13 13 13 16 13 7 5 4 357 349 339 329 321 319 314 308 295 274 286 258 254 249 245 240 239 242 234
12 9 13 11 6 3 358 11 17 12 8 4 359 358 353 342 330 324 322 318 312 304 295 278 285 255 250 252 243 237 240 239
17 13 11 6 352 337 334 1 11 13 4 358 355 348 343 340 330 327 327 321 318 311 302 289 283 286 259 251 250 239 235 237
13 10 8 4 357 341 334 1 4 2 356 353 352 345 337 334 331 326 323 323 317 312 307 299 290 272 289 247 252 248 234 231
9 6 359 357 355 354 356 347 346 346 345 347 347 340 334 330 329 326 321 320 313 310 304 303 290 277 273 259 251 233 233 229
6 358 353 356 359 359 360 357 346 347 344 343 342 341 334 329 323 324 321 312 303 300 296 290 289 286 271 274 218 251 205 219
4 4 0 1 3 1 0 354 341 332 334 334 338 340 333 329 326 324 322 305 300 295 295 286 281 284 288 265 269 251 277 223
5 3 4 6 7 4 356 345 337 331 335 342 344 337 330 325 326 315 311 309 304 297 290 287 280 273 272 273 274 277 247 254
3 2 7 6 4 1 351 344 343 338 343 347 341 332 327 322 323 318 314 309 309 299 296 288 283 275 270 265 260 260 256 237
2 4 3 1 358 354 353 350 343 343 344 340 334 327 323 318 322 321 314 310 305 299 296 290 282 273 269 264 262 261 258 272
359 360 356 356 357 356 355 351 347 338 338 334 329 323 316 316 317 317 316 313 309 311 297 288 278 273 267 263 260 257 264 252